Location: Gilevgi
(36.8751°N, 30.0581°E)
Time: 03:44:14
(UTC+00:00)

IRS-1C - Pass Details

Date: 11 December 2025
Orbit: 813 x 814 km, 99.0° (Epoch: 13 January)

Event Time Altitude Azimuth Distance (km) Brightness Sun altitude
Rises 15:07:51 0° 146° (SSE) 3,324 7.2 -5.2°
Reaches altitude 10° 15:10:17 10° 140° (SE) 2,396 6.4 -5.6°
Maximum altitude 15:15:15 43° 70° (ENE) 1,138 4.5 -6.5°
Drops below altitude 10° 15:20:15 10° 1° (N) 2,409 6.3 -7.4°
Sets 15:22:41 0° 355° (N) 3,345 7.1 -7.9°
